Regional Weather Roundup
Issued by NWS Raleigh/Durham, NC

Home | Current Version | Previous Version | Text Only | Print | Product List | Glossary On
Versions: 1 2 3 4 5 6 7 8 9 10 11 12 13 14 15 16 17 18 19 20 21 22 23 24 25 26 27
000
ASUS42 KRAH 310510
RWRRAH
NORTH CAROLINA WEATHER ROUNDUP
NATIONAL WEATHER SERVICE RALEIGH NC
100 AM EDT SUN JUL 31 2016

NOTE: "FAIR" INDICATES FEW OR NO CLOUDS BELOW 12,000 FEET WITH NO
SIGNIFICANT WEATHER AND/OR OBSTRUCTIONS TO VISIBILITY.

NCZ001-053-055-056-065-067-310600-
WESTERN NORTH CAROLINA

CITY           SKY/WX    TMP DP  RH WIND       PRES   REMARKS
ASHEVILLE      CLOUDY    70  66  87 CALM      30.11F
JEFFERSON      MOCLDY    67  64  89 CALM      30.16F
MORGANTON      CLEAR     68  68 100 CALM      30.09S
HICKORY        CLEAR     72  69  90 CALM      30.04S
RUTHERFORDTON    N/A     70  70 100 CALM      30.06S
MOUNT AIRY     PTCLDY    74  72  93 CALM      30.05F
BOONE          CLEAR     66  65  97 CALM      30.17S
$$

NCZ021-022-025-041-071-084-088-310600-
CENTRAL NORTH CAROLINA

CITY           SKY/WX    TMP DP  RH WIND       PRES   REMARKS
CHARLOTTE      MOCLDY    76  70  82 W6        30.03S
GREENSBORO     CLOUDY    79  72  79 SW3       30.01S
WINSTON-SALEM  PTCLDY    77  72  84 CALM      30.03F
RALEIGH-DURHAM MOCLDY    77  73  87 W5        30.01S
FORT BRAGG     MOCLDY    78  73  85 SW5       29.99S
FAYETTEVILLE   MOCLDY    79  72  79 S8        29.99S
BURLINGTON     MOCLDY    80  70  71 S3        30.00F
LAURINBURG     CLOUDY    77  73  87 SW7       30.01S
$$

NCZ011-015-027-028-043-044-047-080-103-310600-
NORTHEASTERN NORTH CAROLINA

CITY           SKY/WX    TMP DP  RH WIND       PRES   REMARKS
ROCKY MT-WILSO CLOUDY    75  75 100 CALM      29.99F
GREENVILLE     CLOUDY    77  77 100 CALM      30.00S
WASHINGTON     CLOUDY    76  75  98 CALM      29.99S
ELIZABETH CITY CLOUDY    77  76  96 SW7       29.96F
MANTEO         PTCLDY    82  82  98 SW16      29.97F HX  96
CAPE HATTERAS  PTCLDY    81  80  97 SW10      30.00F
$$

NCZ078-087-090-091-093-098-101-310600-
SOUTHEASTERN NORTH CAROLINA

CITY           SKY/WX    TMP DP  RH WIND       PRES   REMARKS
LUMBERTON      CLOUDY    76  73  91 SE3       30.00R
GOLDSBORO      CLOUDY    79  79 100 E1        29.97F
KINSTON        MOCLDY    79  76  91 CALM      30.00S
KENANSVILLE    NOT AVBL
NEW BERN       LGT RAIN  80  77  90 S6        30.00F
CHERRY POINT   CLEAR     82  77  84 SW6       30.01F
BEAUFORT       CLEAR     84  80  88 SW12      30.00F HX  97
JACKSONVILLE   MOCLDY    81  75  82 SW6       30.00S
WILMINGTON     CLEAR     81  75  82 W6        30.02S
$$





USA.gov is the U.S. government's official web portal to all federal, state and local government web resources and services.